Waarnemingen

Advertentie
Mijn weer
Ostersund/Froson, Zweden (2226): temperatuur & dauwpunt: 22.10.2020 01:00:00 - 28.10.2020 01:00:00 (CET)Ostersund/Froson, Zweden (2226): windsnelheid: 22.10.2020 01:00:00 - 28.10.2020 01:00:00 (CET)Ostersund/Froson, Zweden (2226): windrichting: 22.10.2020 01:00:00 - 28.10.2020 01:00:00 (CET)Ostersund/Froson, Zweden (2226): luchtdruk: 22.10.2020 01:00:00 - 28.10.2020 01:00:00 (CET)Ostersund/Froson, Zweden (2226): zicht: 22.10.2020 01:00:00 - 28.10.2020 01:00:00 (CET)
Datum & Tijd tt [°C] td [°C] ff [km/u] ff [kn] dd ppp [hPa] vv [km]
28.10.2020 01:00:00 5,0 3,9 11 6 ZO 993,2 10
28.10.2020 00:00:00 5,0 3,8 13 7 ZZO 993,7 10
27.10.2020 23:00:00 5,2 3,9 16 9 ZZO 993,9 10
27.10.2020 22:00:00 5,2 3,5 21 11 ZO 993,9 10
27.10.2020 21:00:00 5,6 3,4 18 10 ZO 994,3 10
27.10.2020 20:00:00 5,7 3,2 18 10 ZZO 994,7 10
27.10.2020 19:00:00 5,1 3,4 21 11 ZZO 995,0 10
27.10.2020 18:00:00 5,0 3,3 18 10 Z 995,0 10
27.10.2020 17:00:00 5,4 3,7 15 8 ZO 995,4 10
27.10.2020 16:00:00 6,1 3,8 16 9 Z 995,2 10
27.10.2020 15:00:00 6,6 2,7 13 7 Z 995,0 10
27.10.2020 14:00:00 7,0 3,4 16 9 Z 994,7 10
27.10.2020 13:00:00 7,0 3,6 18 10 Z 994,8 10
27.10.2020 12:00:00 5,7 3,7 21 11 ZZW 994,9 10
27.10.2020 11:00:00 5,7 3,7 15 8 Z 994,6 10
27.10.2020 10:00:00 5,2 3,5 11 6 Z 994,8 10
27.10.2020 09:00:00 4,9 4,0 9 5 Z 995,3 10
27.10.2020 08:00:00 5,0 4,4 16 9 ZZO 995,6 10
27.10.2020 07:00:00 5,3 4,9 16 9 ZO 995,8 10
27.10.2020 06:00:00 4,8 4,7 18 10 ZO 996,1 10
27.10.2020 05:00:00 5,0 5,0 15 8 OZO 996,6 10
27.10.2020 04:00:00 4,7 4,6 15 8 OZO 997,2 10
27.10.2020 03:00:00 3,8 3,8 15 8 OZO 998,0 10
27.10.2020 02:00:00 4,6 4,3 21 11 OZO 998,8 10
27.10.2020 01:00:00 3,3 3,3 16 9 ZO 999,0 10
27.10.2020 00:00:00 3,6 3,3 16 9 ZO 999,1 10
26.10.2020 23:00:00 4,5 3,3 9 5 ZZO 999,3 10
26.10.2020 22:00:00 4,9 3,2 15 8 Z 999,7 10
26.10.2020 21:00:00 4,8 3,3 16 9 Z 999,8 10
26.10.2020 20:00:00 5,7 3,2 18 10 ZZO 999,4 10
26.10.2020 19:00:00 5,6 3,6 15 8 ZZO 999,2 10
26.10.2020 18:00:00 4,4 3,1 11 6 ZO 999,3 10
26.10.2020 17:00:00 5,7 3,2 13 7 ZZO 998,9 10
26.10.2020 16:00:00 6,5 2,4 15 8 ZZW 998,6 10
26.10.2020 15:00:00 6,4 2,7 21 11 Z 998,4 10
26.10.2020 14:00:00 6,9 2,4 11 6 Z 998,0 10
26.10.2020 13:00:00 6,2 1,9 22 12 ZZW 997,5 10
26.10.2020 12:00:00 6,1 2,4 18 10 Z 997,2 10
26.10.2020 11:00:00 5,6 2,2 26 14 Z 996,4 10
26.10.2020 10:00:00 5,3 1,6 18 10 Z 996,3 10
26.10.2020 09:00:00 4,8 2,2 18 10 Z 996,2 10
26.10.2020 08:00:00 3,7 2,5 18 10 ZO 995,8 10
26.10.2020 07:00:00 4,3 3,0 21 11 Z 995,7 10
26.10.2020 06:00:00 3,9 2,7 16 9 ZZO 995,9 10
26.10.2020 05:00:00 4,9 2,9 15 8 ZZO 995,7 10
26.10.2020 04:00:00 4,4 3,2 11 6 Z 995,7 10
26.10.2020 03:00:00 4,5 3,6 13 7 Z 996,1 10
26.10.2020 02:00:00 3,4 3,3 11 6 ZO 996,2 10
26.10.2020 01:00:00 4,2 3,3 13 7 ZO 996,1 10
26.10.2020 00:00:00 5,4 2,9 11 6 ZZO 996,0 10
25.10.2020 23:00:00 5,5 3,0 13 7 ZZO 995,3 10
25.10.2020 22:00:00 5,8 4,0 11 6 Z 995,0 10
25.10.2020 21:00:00 6,0 4,2 15 8 Z 994,0 10
25.10.2020 20:00:00 6,3 4,9 22 12 Z 993,3 10
25.10.2020 19:00:00 6,4 5,7 24 13 ZZO 991,9 10
25.10.2020 18:00:00 5,9 5,5 22 12 ZO 991,2 10
25.10.2020 17:00:00 4,4 4,3 15 8 OZO 992,2 7
25.10.2020 16:00:00 4,3 4,0 11 6 OZO 993,5 10
25.10.2020 15:00:00 3,5 3,4 15 8 OZO 994,2 8
25.10.2020 14:00:00 3,8 3,5 26 14 OZO 994,1 7
25.10.2020 13:00:00 3,1 2,8 24 13 ZO 994,7 10
25.10.2020 12:00:00 2,7 2,4 29 16 ZO 995,4 10
25.10.2020 11:00:00 2,5 2,2 28 15 OZO 996,2 10
25.10.2020 10:00:00 2,6 2,0 29 16 OZO 996,6 10
25.10.2020 09:00:00 1,6 1,3 28 15 ZO 997,1 10
25.10.2020 08:00:00 1,3 1,0 26 14 OZO 998,0 10
25.10.2020 07:00:00 1,7 0,8 28 15 ZO 998,7 10
25.10.2020 06:00:00 1,1 0,5 24 13 ZO 999,4 10
25.10.2020 05:00:00 0,8 0,2 21 11 ZO 999,9 10
25.10.2020 04:00:00 0,4 0,1 22 12 ZO 1000,3 9
25.10.2020 03:00:00 0,4 0,0 24 13 ZO 1001,0 10
25.10.2020 02:00:00 0,3 -0,4 16 9 ZO 1001,5 10
25.10.2020 01:00:00 - - - - - - -
25.10.2020 00:00:00 -0,4 -1,1 16 9 OZO 1002,5 10
24.10.2020 23:00:00 -0,4 -1,2 18 10 ZO 1002,6 10
24.10.2020 22:00:00 -0,6 -1,3 18 10 OZO 1002,7 10
24.10.2020 21:00:00 -0,6 -1,4 18 10 ZO 1002,8 10
24.10.2020 20:00:00 -1,3 -1,9 13 7 OZO 1002,8 10
24.10.2020 19:00:00 -0,5 -2,2 11 6 ZO 1003,1 10
24.10.2020 18:00:00 -0,9 -2,6 9 5 ZZO 1003,6 10
24.10.2020 17:00:00 -0,9 -2,9 13 7 ZO 1002,9 10
24.10.2020 16:00:00 -1,0 -3,4 16 9 ZO 1002,9 10
24.10.2020 15:00:00 -0,8 -2,5 11 6 OZO 1002,4 10
24.10.2020 14:00:00 -0,8 -3,2 15 8 OZO 1002,6 10
24.10.2020 13:00:00 -1,2 -3,7 15 8 OZO 1002,7 10
24.10.2020 12:00:00 -1,8 -3,5 9 5 OZO 1002,7 10
24.10.2020 11:00:00 -2,9 -3,4 5 3 O 1002,6 10
24.10.2020 10:00:00 -3,3 -3,7 8 4 ZO 1002,6 10
24.10.2020 09:00:00 -3,7 -4,0 11 6 ZO 1002,4 10
24.10.2020 08:00:00 -4,9 -5,3 9 5 ZO 1002,4 0,3
24.10.2020 07:00:00 -3,2 -4,0 5 3 ZZO 1002,3 10
24.10.2020 06:00:00 -2,2 -3,0 8 4 ZZW 1002,3 10
24.10.2020 05:00:00 -2,4 -2,8 11 6 ZZW 1002,4 10
24.10.2020 04:00:00 -2,0 -3,0 11 6 ZZW 1002,7 10
24.10.2020 03:00:00 -1,8 -2,8 9 5 ZZW 1002,6 10
24.10.2020 02:00:00 -1,5 -2,6 8 4 WZW 1003,1 10
24.10.2020 01:00:00 -2,9 -4,9 9 5 W 1003,7 10
24.10.2020 00:00:00 -0,5 -3,0 13 7 WZW 1003,7 10
23.10.2020 23:00:00 -0,3 -3,2 13 7 WZW 1003,8 10
23.10.2020 22:00:00 0,1 -3,1 18 10 W 1003,7 10
23.10.2020 21:00:00 0,3 -2,9 21 11 WNW 1003,5 10
23.10.2020 20:00:00 0,6 -2,8 18 10 W 1003,5 10
23.10.2020 19:00:00 0,6 -2,5 21 11 W 1003,6 10
23.10.2020 18:00:00 0,5 -2,4 24 13 W 1003,3 10
23.10.2020 17:00:00 1,1 -2,1 18 10 W 1003,4 10
23.10.2020 16:00:00 1,5 -1,9 18 10 WNW 1003,2 10
23.10.2020 15:00:00 1,8 -1,8 26 14 W 1002,9 10
23.10.2020 14:00:00 1,6 -2,5 24 13 WNW 1002,7 10
23.10.2020 13:00:00 1,2 -1,7 26 14 WNW 1002,7 10
23.10.2020 12:00:00 0,9 -2,0 26 14 WNW 1002,6 10
23.10.2020 11:00:00 0,5 -2,1 24 13 W 1002,3 10
23.10.2020 10:00:00 -0,6 -2,7 24 13 W 1002,1 10
23.10.2020 09:00:00 -0,7 -2,7 24 13 W 1001,7 10
23.10.2020 08:00:00 -1,0 -2,3 22 12 WNW 1001,5 10
23.10.2020 07:00:00 -1,8 -2,8 16 9 NW 1001,2 10
23.10.2020 06:00:00 -2,7 -3,8 11 6 NW 1000,8 10
23.10.2020 05:00:00 -3,4 -3,9 8 4 NNW 1000,8 10
23.10.2020 04:00:00 -3,1 -4,2 11 6 NNW 1000,7 10
23.10.2020 03:00:00 -2,9 -3,9 9 5 NNW 1000,4 10
23.10.2020 02:00:00 -2,6 -3,1 8 4 NNW 1000,2 10
23.10.2020 01:00:00 -2,8 -4,4 9 5 NW 1000,1 10
23.10.2020 00:00:00 -2,9 -4,3 5 3 NW 1000,1 10
22.10.2020 23:00:00 -2,5 -4,1 9 5 NNW 999,7 10
22.10.2020 22:00:00 -2,1 -3,2 8 4 NNW 999,7 10
22.10.2020 21:00:00 -1,2 -2,3 9 5 NNW 999,4 10
22.10.2020 20:00:00 -0,7 -0,8 5 3 N 999,4 10
22.10.2020 19:00:00 -0,8 -0,9 4 2 N 999,3 4,1
22.10.2020 18:00:00 -1,2 -1,3 4 2 N 999,4 10
22.10.2020 17:00:00 -1,3 -1,4 5 3 N 999,3 10
22.10.2020 16:00:00 -1,4 -1,7 5 3 N 998,9 9
22.10.2020 15:00:00 -1,2 -1,8 4 2 - 998,9 10
22.10.2020 14:00:00 -1,2 -1,8 8 4 NNO 998,7 10
22.10.2020 13:00:00 -0,8 -1,9 11 6 NNO 998,8 10
22.10.2020 12:00:00 -1,1 -1,7 8 4 N 998,7 10
22.10.2020 11:00:00 -1,5 -2,1 8 4 NNO 999,0 10
22.10.2020 10:00:00 -1,5 -1,9 13 7 NNO 998,3 10
22.10.2020 09:00:00 -1,3 -1,6 9 5 NNO 998,3 10
22.10.2020 08:00:00 -1,2 -1,3 8 4 N 998,1 9
22.10.2020 07:00:00 -1,0 -1,1 8 4 NNO 997,7 8
22.10.2020 06:00:00 -0,7 -0,6 11 6 NNO 997,9 1,2
22.10.2020 05:00:00 -0,4 -0,3 9 5 NNO 997,9 2,7
22.10.2020 04:00:00 -0,2 -0,5 9 5 NO 998,2 10
22.10.2020 03:00:00 -0,2 -0,1 5 3 NO 998,4 10
22.10.2020 02:00:00 -0,1 -0,1 8 4 NO 998,9 10
22.10.2020 01:00:00 -0,1 -0,1 5 3 NO 999,4 2,0

tt = temperatuur
td = dauwpunt
ff = windsnelheid
dd = windrichting
ppp = luchtdruk
vv = zicht

Weerstations in de omgeving